Regional Weather Roundup
Issued by NWS Newport/Morehead, NC

Current Version | Previous Version | Graphics & Text | Print | Product List | Glossary On
Versions: 1 2 3 4 5 6 7 8 9 10 11 12 13 14 15 16 17 18 19 20 21 22 23 24 25 26 27 28 29 30 31 32 33 34 35 36 37 38 39 40 41 42 43 44 45 46 47 48 49 50
000 ASUS42 KMHX 160913 RWRMHX WEATHER ROUNDUP FOR EASTERN NORTH CAROLINA NATIONAL WEATHER SERVICE NEWPORT/MOREHEAD CITY NC 400 AM EST MON JAN 16 2017 NOTE: "FAIR" INDICATES FEW OR NO CLOUDS BELOW 12,000 FEET WITH NO SIGNIFICANT WEATHER AND/OR OBSTRUCTIONS TO VISIBILITY NCZ015>017-031-032-045>047-102-103-161000- NORTH COAST CITY SKY/WX TMP DP RH WIND PRES REMARKS EDENTON NOT AVBL ELIZABETH CITY CLOUDY 42 36 79 NE12 30.41S KITTY HAWK NOT AVBL MANTEO CLOUDY 45 37 74 NE10 30.39F $$ NCZ045>047-081-094-103-104-161000- CENTRAL COAST CITY SKY/WX TMP DP RH WIND PRES REMARKS FRISCO CLOUDY 48 42 80 NE8G18 30.36F $$ NCZ095-097-098-100-101-161000- SOUTHERN COAST CITY SKY/WX TMP DP RH WIND PRES REMARKS BEAUFORT CLOUDY 44 40 85 NE8 30.36S CEDAR ISLAND NOT AVBL JACKSONVILLE CLOUDY 45 38 76 NE12 30.36S PINEY ISLAND PTSUNNY N/A N/A N/A N8 30.36S WILMINGTON CLOUDY 49 44 83 NE8 30.34S $$ NCZ011>013-027>030-043-044-078>080-089-090>093-098-161000- COASTAL PLAIN CITY SKY/WX TMP DP RH WIND PRES REMARKS AHOSKIE N/A 40 25 54 N6 30.43R CLINTON CLOUDY 48 41 77 E3 30.37S ELIZABETHTOWN CLOUDY 49 43 82 NE3 30.35R GOLDSBORO CLOUDY 45 44 99 E8 30.37R GREENVILLE CLOUDY 43 32 65 NE5 30.39S HAVELOCK CLOUDY 43 38 82 NE7 30.37F KENANSVILLE CLOUDY 45 37 76 NE5 30.38R KINSTON CLOUDY 43 38 82 NE3 30.39S NEW BERN CLOUDY 43 38 82 NE7 30.39S RICHLANDS CLOUDY 44 39 82 NE12 30.37S ROCKY MOUNT CLOUDY 45 26 47 NE7 30.40R WASHINGTON CLOUDY 41 36 81 NE6 30.39S WHITEVILLE CLOUDY 50 46 86 NE6 30.32F $$ AMZ130-135-150-152-154-156-158-170-250-252-270-ANZ085-086-088-633-658-670-161000- MARINE OBSERVATIONS STATION/POSITION TIME TEMP WIND PRES WAVE SWELL AIR SEA DIR/SP/G HT/PER HT/PER (UTC) (F) (DEG/KT/KT) (MB) (FT/S) (FT/S) CHESAPEAKE LIGHT NOT AVBL 64 E VA BEACH 0850 50 57 20/ 12/ 16 1028.9 4/ 8 3/ 8 DUCK 0842 44 44 10/ 11/ 13 1028.9 2 E DUCK 0830 44 N/A 3/ 7 2/11 OREGON INLET 0842 46 49 10/ 11/ 14 1029.0 13E OREGON INLT NOT AVBL HATTERAS CG 0842 46 54 20/ 14/ 20 1027.5 DIAMOND BUOY 0850 56 74 20/ 17/ 21 1027.3 5/ 5 2/ 8 CAPE LOOKOUT 0800 45 20/ 13/ 15 1027.3 BEAUFORT LAB 0842 44 49 20/ 10/ 12 1027.0 30 SE NEW RVR IN 0808 50 64 50/ 17/ 21 1027.1 30 SE NEW RVR IN 0843 64 N/A 4/ 5 2/11 27 SE WRIGHTSVLE 0808 57 70 70/ 16/ 23 1026.3 5 SE WRIGHTSVLE 0808 51 60/ 12/ 21 1027.3 225 S CAPE HAT 0850 68 71 100/ 8/ 10 1025.6 4/ 8 3/ 8 41 SE CHARLESTON 0750 69 71 90/ 2/ 4 1024.9 4/10 3/10 $$

USA.gov is the U.S. government's official web portal to all federal, state and local government web resources and services.